Location: Unnamed
(23.5608°S, 46.6833°W)
Time: 11:14:45
(UTC-03:00)

ELECTRON KICK STAGE R/B - Visible Passes

Search period start: 01 December 2023 00:00
Search period end: 11 December 2023 00:00
Orbit: 547 x 735 km, 98.3° (Epoch: 01 December)

Date Brightness Start Highest point End Pass type
(mag) Time Alt. Az. Time Alt. Az. Time Alt. Az.
02 Dec ? 19:12:13 10° S 19:17:05 56° WSW 19:21:44 10° NNW visible
03 Dec ? 19:36:27 10° SSW 19:40:43 30° WSW 19:44:50 10° NW visible
04 Dec ? 20:01:19 10° SSW 20:04:16 16° WSW 20:07:10 10° WNW visible
06 Dec ? 19:10:53 10° S 19:15:43 59° WSW 19:20:19 10° NNW visible
07 Dec ? 19:35:04 10° SSW 19:39:20 31° WSW 19:43:25 10° NW visible
08 Dec ? 19:59:50 10° SSW 20:02:50 17° WSW 20:05:46 10° WNW visible
10 Dec ? 19:09:26 10° S 19:14:13 63° WSW 19:18:43 10° NNW visible
